User: anonymous   Login
Location: Altleiningen
(49.5078°N, 8.0741°E)
Time: 14:40:21
(UTC+00:00)
Language:

ERBS - Orbit

View from above orbital plane
View from above orbital plane
View from above satellite
View from above satellite

Ground track
Ground track

The orbit data is extracted from the following two-line orbital elements,

1 15354U 84108B   21128.92302559  .00003506  00000-0  63468-4 0  9993
2 15354  57.0040  99.2097 0006845 356.5253   3.5757 15.52508326 18063
Epoch (UTC): 08 May 2021 22:09:09
Eccentricity: 0.0006845
inclination: 57.0040°
perigee height: 405 km
apogee height: 414 km
right ascension of ascending node: 99.2097°
argument of perigee: 356.5253°
revolutions per day: 15.52508326
mean anomaly at epoch: 3.5757°
orbit number at epoch: 1806

The dashed part of the orbit path shows where the satellite is in the earth's shadow,  

DLR